Location: Newark
(36.1358°N, 115.1208°W)
Time: 18:46:47
(UTC+00:00)

ISS - Pass Details

Date: 04 October 2021
Orbit: 417 x 423 km, 51.6° (Epoch: 16 October)

Event Time Altitude Azimuth Distance (km) Brightness Sun altitude
Rises 02:03:26 0° 322° (NW) 2,363 0.7 -9.5°
Reaches altitude 10° 02:05:58 10° 342° (NNW) 1,498 -0.7 -10.0°
Maximum altitude 02:08:25 19° 29° (NNE) 1,080 -1.9 -10.5°
Enters shadow 02:10:04 14° 65° (ENE) 1,282 -1.8 -10.8°
